Location: Monfort
(47.1967°N, 0.2115°W)
Time: 11:42:43
(UTC+00:00)

NOSS 3-4 (C) - Pass Details

Date: 24 October 2020
Orbit: 886 x 1326 km, 63.4° (Epoch: 06 November)

Event Time Altitude Azimuth Distance (km) Brightness Sun altitude
Rises 19:44:57 0° 319° (NW) 3,769 7.3 -29.1°
Reaches altitude 10° 19:47:32 10° 325° (NW) 2,875 6.5 -29.5°
Enters shadow 19:53:51 54° 29° (NNE) 1,352 4.0 -30.6°
